Location: Newark
(42.8481°N, 0.4872°E)
Time: 12:49:23
(UTC+00:00)

Transit 2A Rocket - Visible Passes

Search period start: 31 October 2020 00:00
Search period end: 10 November 2020 00:00
Orbit: 586 x 916 km, 66.7° (Epoch: 30 October)

Date Brightness Start Highest point End Pass type
(mag) Time Alt. Az. Time Alt. Az. Time Alt. Az.
31 Oct 4.8 17:23:19 10° NNW 17:28:30 67° ENE 17:33:11 10° SE visible
31 Oct 7.7 19:07:35 10° WNW 19:10:20 15° WSW 19:12:57 10° SW visible
01 Nov 7.0 18:23:56 10° NW 18:28:08 27° WSW 18:32:00 10° SSW visible
02 Nov 5.9 17:40:53 10° NW 17:45:47 48° WSW 17:50:14 10° S visible
04 Nov 7.8 17:59:20 10° WNW 18:02:40 18° WSW 18:05:50 10° SSW visible
05 Nov 6.9 17:15:58 10° NW 17:20:25 33° WSW 17:24:31 10° S visible
07 Nov 8.6 05:27:35 10° SE 05:30:34 14° ESE 05:33:32 10° ENE visible
07 Nov 8.5 17:35:23 10° W 17:37:11 12° WSW 17:38:56 10° SW visible
09 Nov 7.3 05:42:09 10° S 05:47:29 33° ESE 05:52:41 10° NE visible
